Theta_e
318 318 318 318 317 317 317 318 318 318 318 319 319 319 320 321 322 323 323 324 325 325 326 326 326 326 327 327 328 328 328 327 326 326 325 326 326 327 328 327 327 327
316 316 315 315 315 315 315 315 315 315 316 316 316 316 316 317 318 319 320 322 323 324 324 324 324 324 325 326 326 327 328 327 327 326 325 324 324 325 326 327 327 326
314 314 314 314 314 314 314 314 314 314 314 314 315 315 315 315 315 316 316 317 319 319 320 321 321 322 323 323 324 325 326 326 326 326 326 325 324 324 324 325 325 325
313 313 313 312 312 312 313 313 313 314 314 314 314 314 314 314 314 314 315 315 315 316 316 317 318 318 319 320 321 322 323 323 324 324 324 325 325 325 325 324 324 324
312 311 311 310 311 311 311 312 313 313 313 313 313 313 313 313 313 313 313 314 314 314 314 314 314 315 315 316 317 318 319 320 321 322 322 323 323 323 324 324 324 323
310 310 309 309 309 310 311 311 311 312 312 312 312 312 312 312 312 312 312 312 311 311 311 311 311 312 312 312 312 313 314 315 316 317 318 319 320 320 321 322 322 323
308 308 307 307 307 308 309 310 310 311 311 311 311 311 311 311 311 311 311 311 311 311 310 310 310 310 310 310 311 311 311 312 312 313 314 315 316 317 318 319 320 321
306 306 306 305 306 306 306 307 308 308 309 309 310 310 310 310 310 310 310 310 310 310 310 310 309 309 310 310 310 310 310 311 311 312 312 313 314 315 315 316 318 319
305 305 305 305 305 305 305 305 305 306 306 307 307 308 308 309 309 309 309 309 309 309 309 309 309 308 309 309 309 309 309 310 310 310 311 312 312 313 314 315 316 317
303 304 304 304 304 304 305 305 305 305 305 305 305 306 307 307 308 308 308 308 308 308 307 307 307 307 307 308 308 308 308 309 309 309 310 310 311 311 312 313 314 316
302 302 302 303 303 303 303 303 304 304 304 304 304 304 304 304 305 305 306 306 306 306 306 305 306 306 306 306 306 307 307 307 308 308 309 309 310 311 311 312 313 314
301 301 301 301 301 301 301 301 301 301 301 302 302 302 302 302 302 303 303 303 303 304 304 304 304 304 305 305 305 305 306 306 306 307 308 309 310 310 310 311 311 312
300 300 300 300 300 300 299 299 298 299 299 299 299 299 299 300 301 301 301 301 302 302 302 302 302 303 303 303 303 304 304 305 305 306 307 308 308 308 308 309 309 310
299 300 300 300 300 299 299 298 297 297 298 297 297 297 297 298 299 299 300 300 300 300 300 300 301 301 301 302 302 302 303 303 304 305 306 306 306 306 306 307 307 308
299 299 300 299 299 299 297 296 296 296 297 296 296 296 296 296 296 297 298 298 298 298 298 298 299 299 299 300 300 301 301 302 303 303 304 305 305 305 305 306 306 307
299 299 299 299 298 297 295 295 295 296 296 295 295 295 295 295 295 295 295 296 296 296 296 296 297 298 298 298 299 299 300 300 301 302 302 303 304 304 305 306 306 307
298 298 298 297 296 295 294 294 295 295 294 294 294 294 294 294 294 294 294 294 294 294 295 295 295 296 296 297 297 298 299 299 299 300 300 301 302 303 303 304 305 306
296 296 295 295 294 294 294 294 294 294 294 294 294 294 294 294 294 294 294 294 294 294 294 294 294 295 295 295 295 296 298 298 298 298 299 300 300 301 302 303 304 304
295 294 294 294 294 294 294 294 294 294 294 294 294 294 294 294 294 294 294 294 294 294 294 294 294 295 294 294 295 295 296 297 298 298 298 298 299 300 300 301 302 303
295 295 294 294 294 294 294 294 294 294 294 294 294 294 294 294 294 293 294 294 294 294 294 294 294 294 294 294 294 294 295 296 297 297 297 297 298 299 299 300 300 301
295 295 294 294 294 294 294 294 294 294 293 293 293 293 293 293 293 293 293 294 293 294 294 294 294 294 294 294 294 295 295 296 297 297 297 297 297 298 298 298 299 299
295 294 294 293 293 293 293 294 294 293 293 293 293 293 293 293 293 293 293 293 293 293 294 294 294 294 294 294 295 295 295 295 296 296 296 296 296 297 298 298 298 299
296 295 294 293 293 293 293 293 293 293 293 293 293 293 293 293 293 293 293 293 293 293 293 294 294 294 294 295 295 295 294 295 295 296 296 295 296 296 297 297 298 298
296 296 295 294 294 294 294 293 293 293 293 293 293 293 293 293 293 293 293 293 293 293 293 293 294 294 295 295 295 294 294 294 295 295 295 295 295 296 296 297 297 297
297 297 296 295 295 294 294 293 293 293 293 293 293 293 293 293 293 293 293 293 293 293 293 293 294 295 295 295 295 294 294 294 294 294 294 295 295 296 296 296 296 297
297 297 297 296 295 295 294 294 293 293 293 293 293 293 293 293 293 293 293 293 293 293 293 293 294 295 295 295 295 294 293 293 293 293 294 294 295 295 296 296 296 296
Wind_Speed
5 6 6 6 7 8 9 10 12 13 13 14 16 17 17 18 19 20 21 23 25 25 25 25 25 26 26 25 24 23 24 25 26 26 26 25 24 23 23 24 24 24
4 5 6 6 6 6 6 7 8 9 10 11 13 14 15 16 16 17 19 21 23 26 27 28 28 29 29 29 28 27 26 27 27 28 30 30 28 26 25 25 25 25
5 5 6 6 6 6 5 5 4 5 7 8 10 12 13 14 15 15 16 18 21 24 26 27 28 29 30 30 29 29 28 28 29 30 30 30 30 30 29 28 27 27
5 6 7 7 6 6 5 3 2 3 4 6 7 9 10 11 13 13 14 15 17 19 21 23 25 26 27 28 28 29 28 28 29 30 30 30 30 31 32 31 31 30
7 7 8 7 7 5 4 4 4 4 5 6 7 8 10 11 12 12 12 12 13 15 17 18 20 22 23 24 26 27 28 28 28 29 30 31 31 31 31 31 33 32
8 8 8 8 7 6 5 5 5 5 6 7 8 9 10 12 13 14 13 13 13 14 16 16 18 19 20 22 23 24 26 27 28 29 30 31 32 32 31 31 31 31
8 9 8 8 8 7 6 6 5 5 6 7 7 9 10 11 13 14 15 15 14 14 15 17 18 19 20 21 21 22 22 23 24 26 27 29 30 30 30 31 31 31
9 9 9 8 9 9 9 8 8 8 8 8 9 10 11 12 13 13 14 13 13 13 15 16 18 19 20 21 22 22 22 22 22 23 24 25 26 26 27 29 31 32
11 10 9 9 10 10 11 11 12 12 13 12 12 13 13 13 13 13 12 12 12 14 16 17 19 20 21 23 24 24 24 23 22 22 23 24 24 24 24 25 27 29
13 12 11 11 12 12 12 12 13 14 15 15 15 15 15 14 14 14 13 13 13 15 17 19 20 22 22 24 25 25 26 25 25 24 23 23 23 23 23 23 23 24
15 14 13 13 14 14 14 14 14 15 15 16 16 17 17 17 16 16 16 16 16 17 19 20 21 22 23 23 24 26 26 27 27 27 26 24 23 22 22 22 21 21
16 15 14 15 15 15 15 15 15 15 16 17 17 18 18 18 18 18 18 19 19 19 20 21 22 23 24 25 26 27 28 28 29 28 28 26 24 22 21 21 21 20
15 15 14 15 15 15 16 16 16 16 17 17 18 18 19 19 19 19 19 20 20 20 21 22 23 24 25 27 28 29 29 30 30 30 29 27 26 24 22 22 22 21
14 13 13 14 14 15 17 18 18 18 18 18 19 19 20 19 19 19 20 20 21 21 22 23 24 25 27 28 29 30 30 30 30 29 29 28 27 25 24 23 22 22
11 12 12 13 14 16 18 19 18 18 19 19 20 21 21 20 20 20 20 20 21 22 23 24 25 26 28 30 30 31 31 31 30 29 29 28 27 26 24 23 22 22
10 11 12 13 14 17 19 19 19 19 20 21 22 22 22 22 22 22 22 22 22 23 24 25 26 26 28 29 29 30 31 31 31 31 30 29 28 27 26 24 23 22
12 12 13 14 16 18 19 20 20 21 21 22 23 23 23 24 24 24 24 24 25 25 26 26 27 27 28 28 29 29 31 31 32 32 32 30 28 28 28 27 25 23
15 15 16 17 18 20 21 21 22 22 23 23 23 24 24 24 24 24 25 25 25 26 27 27 28 28 29 30 30 29 30 31 32 33 34 33 30 28 28 28 27 26
19 19 20 20 21 21 21 22 22 22 23 23 23 23 23 23 22 22 22 23 24 25 26 27 28 29 30 31 32 31 30 30 31 33 34 34 33 31 30 30 30 29
21 21 22 21 21 20 20 20 21 22 22 22 22 23 23 23 22 22 22 22 23 24 25 26 27 29 31 32 33 33 32 31 31 32 34 35 35 34 33 34 34 33
21 21 22 22 21 21 20 21 21 22 22 23 23 24 24 23 23 22 22 22 22 23 24 25 27 28 30 32 34 34 33 32 32 32 34 36 37 36 36 36 36 35
24 24 24 24 25 24 24 24 23 23 23 24 24 24 24 24 23 23 23 23 23 23 23 24 25 27 29 31 33 35 35 34 33 33 35 37 38 38 38 38 38 37
25 26 26 26 27 28 27 26 25 24 24 24 25 25 26 26 26 26 26 25 25 24 24 24 25 27 29 31 34 36 37 36 35 35 35 37 39 40 40 39 38 36
25 26 27 27 27 28 28 27 25 24 25 25 26 28 28 28 28 27 28 27 26 25 24 24 25 26 29 31 35 37 37 37 37 36 36 38 39 40 41 40 38 37
24 25 26 26 27 27 28 27 26 25 26 26 28 29 30 30 29 29 29 29 27 25 25 25 25 27 29 32 35 38 38 37 37 37 36 37 39 40 40 40 40 39
22 23 24 25 26 26 27 27 27 26 26 27 28 30 30 31 31 31 31 30 28 26 26 26 26 27 29 31 35 38 40 39 38 37 36 35 36 38 39 39 40 40
Wind_Direction
311 312 312 307 299 294 292 292 294 296 298 298 297 296 293 287 281 276 274 274 275 277 280 282 283 284 284 285 287 291 293 294 294 293 292 291 291 291 291 291 291 292
328 330 328 322 317 312 305 302 300 299 300 300 300 300 298 295 290 284 279 274 272 273 275 278 278 279 279 280 281 283 287 289 290 291 290 290 289 290 292 292 293 293
355 349 344 341 341 342 338 330 316 307 307 307 307 305 303 301 297 293 287 280 276 274 275 277 277 277 277 278 279 281 283 285 286 287 289 290 289 291 292 293 295 295
6 359 360 5 7 6 8 14 18 358 339 328 322 318 314 310 306 301 294 288 283 280 281 281 282 282 281 280 280 281 282 283 284 285 286 287 288 290 290 290 293 294
14 14 21 30 35 39 51 60 52 31 9 352 345 340 336 333 330 326 317 307 300 297 297 296 294 293 292 290 287 284 283 282 281 283 285 285 286 287 290 291 291 292
24 28 36 46 56 64 70 67 53 34 17 6 356 349 348 349 348 348 347 342 334 325 321 318 315 311 307 305 303 300 297 293 289 287 287 286 285 285 288 291 291 291
35 34 40 50 59 60 56 57 49 31 16 5 354 349 351 352 350 352 356 355 348 340 336 334 331 328 325 323 322 321 318 314 308 301 296 293 290 287 287 287 288 289
47 43 43 46 49 45 38 34 28 20 14 2 353 352 353 352 352 354 356 354 348 342 339 338 337 336 335 333 332 333 332 329 325 318 312 306 300 296 291 286 285 286
62 58 54 49 46 42 35 29 24 19 18 15 12 9 3 0 359 358 355 351 345 342 339 338 339 339 338 337 336 337 337 337 335 330 325 318 311 305 299 294 290 288
69 67 63 57 52 47 42 37 31 27 26 28 27 24 22 19 14 9 5 359 353 350 347 345 345 344 343 342 341 340 340 340 339 338 335 329 322 314 307 303 299 296
69 69 66 62 58 54 51 45 40 37 35 35 33 31 30 28 26 22 18 15 11 8 4 0 357 355 353 352 349 348 347 346 343 341 339 335 329 323 317 312 308 305
69 69 67 65 63 60 57 52 47 44 42 39 36 33 32 31 30 29 27 26 24 21 17 13 9 5 3 1 358 355 353 351 348 344 342 340 337 331 326 321 317 313
69 70 68 65 62 59 57 53 51 49 45 42 37 34 33 32 31 31 30 29 26 24 21 16 13 9 7 5 2 359 357 354 351 349 346 345 344 341 335 329 324 319
70 70 67 64 58 54 52 51 52 52 49 44 39 35 34 32 31 30 29 27 25 23 20 17 14 12 9 7 4 2 359 356 353 352 351 348 347 347 344 337 330 325
74 71 67 64 58 52 49 50 52 52 49 45 40 37 35 33 31 28 26 25 23 21 19 17 15 16 14 10 7 4 1 359 357 355 353 351 349 348 347 344 339 332
81 76 71 67 58 52 50 51 52 51 47 43 40 37 36 34 32 29 27 24 22 20 18 17 16 17 15 10 8 6 3 2 1 359 357 354 351 349 347 347 345 339
84 78 72 67 60 55 55 55 53 50 46 42 39 36 34 32 30 29 28 25 23 20 18 17 17 15 12 8 7 6 4 3 3 2 1 358 354 351 349 347 346 344
84 80 75 70 65 61 59 56 53 49 45 41 38 35 32 29 27 25 24 22 21 19 17 15 14 13 10 7 6 5 4 3 3 3 3 1 358 356 353 350 348 346
81 79 77 73 69 65 60 56 52 48 44 40 37 34 31 28 26 23 21 19 17 16 15 13 10 9 7 5 5 4 4 3 3 3 3 3 2 1 358 356 352 348
78 77 76 74 70 66 61 57 52 48 44 40 36 32 29 28 26 23 21 18 15 13 12 10 7 6 4 3 2 2 3 4 4 3 4 4 4 4 3 1 357 353
75 76 74 71 67 63 59 56 53 49 45 40 36 32 29 27 26 25 23 19 15 12 10 8 6 4 3 2 1 2 2 3 4 4 4 5 5 6 6 4 359 356
70 70 68 64 61 58 57 55 52 49 46 42 38 35 32 30 29 28 26 23 18 14 12 9 6 5 5 4 5 4 3 2 3 3 3 4 5 6 6 5 1 357
65 63 62 60 57 55 54 53 51 48 45 41 38 36 35 34 33 30 27 24 21 18 16 12 7 7 9 8 8 7 5 3 2 2 2 3 4 5 5 4 2 358
63 60 58 57 55 54 52 50 49 46 43 40 37 36 36 34 33 31 28 26 24 22 19 15 12 12 12 11 8 6 6 5 3 1 1 1 2 3 3 2 1 360
63 59 56 54 53 53 51 49 47 45 42 40 37 35 35 33 31 30 28 28 27 25 22 18 16 16 14 11 7 5 6 7 5 2 1 1 1 1 1 1 1 360
62 57 54 53 50 49 49 47 45 44 42 40 37 35 34 32 30 29 28 28 27 26 24 21 20 19 15 11 8 5 5 6 7 5 3 1 1 0 360 1 1 0